#timestamp,LO_Frequency,Hit,StdDev 
1556726415.4,286047000.0,N
1556726435.2,286046998.2,N
1556726455.0,286046999.7,N
1556726455.9,286046999.7,N
1556726475.8,286047000.2,N
1556726495.6,286047002.4,N
1556726515.5,286047000.3,N
1556726535.3,286046998.2,N
1556726555.1,286047000.2,N
1556726575.9,286046998.9,N
1556726595.7,286047000.5,N
1556726615.5,286046999.9,N
1556726635.4,286047002.8,N
1556726655.2,286046999.5,N
1556726675.1,286046996.8,N
1556726676.0,286046996.8,N
1556726695.8,286046998.4,N
1556726715.6,286046998.1,N
1556726735.5,286046998.1,N
1556726755.3,286047000.8,N
1556726775.1,286046999.7,N
1556726795.9,286047000.8,N
1556726815.7,286046999.4,N
1556726835.6,286046999.5,N
1556726855.4,286046998.9,N
1556726875.2,286046998.8,N
1556726895.1,286046996.9,N
1556726896.0,286046996.9,N
1556726915.8,286046996.9,N
1556726935.7,286046996.6,N
1556726955.5,286046996.7,N
1556726975.3,286046998.3,N
1556726995.2,286046999.5,N
1556727015.0,286046997.1,N
1556727015.9,286046997.1,N
1556727035.8,286046997.2,N
1556727055.6,286046999.2,N
1556727075.4,286046999.3,N
1556727095.3,286047000.9,N
1556727115.1,286047000.4,N
1556727135.8,286046999.8,N
1556727155.7,286046999.9,N
1556727175.5,286047001.1,N
1556727195.4,286047000.8,N
1556727215.2,286047001.1,N
1556727235.0,286047000.1,N
1556727235.9,286047000.1,N
1556727255.8,286046998.5,N
1556727275.6,286047000.0,N
1556727295.5,286047000.4,N
1556727315.3,286047001.9,N
1556727365.2,286046999.7,E
1556727375.1,286047002.4,N
1556727376.0,286047002.4,P
1556727395.8,286047000.6,P
1556727415.7,286046999.9,N
1556727435.5,286047000.6,N
1556727455.3,286047000.8,N
1556727475.2,286047000.7,N
1556727495.0,286047000.3,N
1556727495.9,286047000.3,N
1556727515.7,286046999.7,N
1556727535.6,286047001.7,N
1556727555.4,286047002.0,N
1556727575.3,286047000.0,N
1556727595.1,286047000.5,N
1556727596.0,286047000.5,N
1556727615.8,286047001.2,N
1556727635.7,286047001.1,N
1556727655.5,286046999.7,N
1556727675.4,286047002.7,Y
1556727695.2,286047001.2,P
1556727715.0,286047001.0,P
1556727715.9,286047001.0,P
1556727735.8,286047002.7,Y
1556727755.6,286047004.4,P
1556727775.5,286047003.6,N
1556727795.3,286047003.9,N
1556727815.1,286047004.3,Y
1556727835.9,286046998.2,P
1556727855.7,286046999.2,N
1556727875.6,286046994.9,N
1556727895.4,286046997.4,N
1556727915.2,286046997.6,N
1556727935.1,286046996.7,N
1556727936.0,286046996.7,N
1556727955.8,286046995.5,N
1556727975.6,286046995.3,N
1556727995.5,286046996.1,N
1556728015.3,286046995.7,N
1556728035.2,286046995.4,N
1556728055.9,286046995.9,N
1556728075.7,286046998.0,N
1556728095.6,286046996.9,N
1556728115.4,286046999.2,N
1556728135.2,286046999.0,N
1556728155.1,286046999.6,N
1556728156.0,286046999.6,N
1556728175.8,286046996.9,N
1556728195.7,286046994.9,N
1556728215.5,286046995.3,N
1556728235.3,286046995.3,N
1556728255.2,286046998.0,N
1556728275.9,286046995.7,N
1556728295.7,286046995.7,N
1556728315.6,286046995.0,N
1556728335.4,286046994.9,N
1556728355.2,286046997.1,N
1556728375.1,286046995.1,N
1556728376.0,286046995.1,Y
1556728395.8,286046999.5,P
1556728415.7,286046996.5,N
1556728435.5,286046998.7,N
1556728455.3,286047001.0,N
1556728475.2,286046999.3,N
1556728495.0,286046999.4,N
1556728495.9,286046999.4,N
1556728515.8,286046996.6,N
1556728535.6,286046999.2,N
1556728555.4,286046999.3,N
1556728575.3,286046997.2,N
1556728595.1,286046997.6,N
1556728615.8,286046995.7,Y
1556728635.7,286046996.9,P
1556728655.5,286046996.7,P
1556728675.4,286046997.7,N
1556728695.2,286046997.7,Y
1556728715.0,286046998.2,P
1556728715.9,286046998.2,P
1556728735.8,286047001.2,P
1556728755.6,286047000.6,N
1556728775.5,286047000.5,N
1556728795.3,286047000.1,N
1556728815.1,286046998.4,N
1556728835.9,286046998.8,N
1556728855.7,286046998.3,N
1556728875.5,286047000.8,N
1556728895.4,286046999.8,N
1556728915.2,286047001.0,N
1556728935.0,286046998.7,N
1556728936.0,286046998.7,N
1556728955.8,286046998.8,N
1556728975.6,286046999.0,N
1556728995.5,286046998.8,N
1556729015.3,286046998.6,N
1556729035.1,286046998.1,N
1556729055.9,286047001.2,N
1556729075.7,286046999.1,N
1556729095.5,286046998.9,N
1556729115.4,286046998.7,N
1556729135.2,286047001.2,N
1556729155.1,286046998.2,N
1556729156.0,286046998.2,N
1556729175.8,286047000.5,N
1556729195.6,286046999.7,N
1556729215.5,286047000.9,N
1556729235.3,286047000.4,N
1556729255.1,286047000.8,N
1556729275.9,286047000.9,N
1556729295.7,286047000.2,N
1556729315.6,286047002.8,N
1556729335.4,286046999.7,N
1556729355.2,286046999.9,N
1556729375.1,286046999.0,N
1556729376.0,286046999.0,N
1556729395.8,286046998.1,N
1556729415.7,286047000.3,N
1556729435.5,286047002.7,N
1556729455.3,286047002.0,N
1556729475.2,286047002.4,N
1556729495.0,286047000.0,N
1556729495.9,286047000.0,N
1556729515.7,286046998.4,N
1556729535.6,286046999.4,N
1556729555.4,286047000.6,N
1556729575.3,286047000.1,N
1556729595.1,286047000.7,N
1556729615.8,286046999.9,N
1556729635.7,286046998.3,N
1556729655.5,286046997.0,N
1556729675.3,286046998.8,N
1556729695.2,286046997.4,N
1556729715.0,286046999.0,N
1556729715.9,286046999.0,N
1556729735.8,286046996.6,N
1556729755.6,286046998.6,N
1556729775.4,286047000.7,N
1556729795.3,286047000.1,N
1556729815.1,286047002.4,N
1556729835.9,286047002.7,N
1556729855.7,286047002.7,N
1556729875.5,286047002.8,N
1556729895.4,286047002.4,N
1556729915.2,286047000.1,N
1556729935.0,286047000.2,N
1556729935.9,286047000.2,N
1556729955.8,286047000.4,N
1556729975.6,286047000.7,N
1556729995.5,286047001.1,N
